Temperature
18 19 19 19 18 17 16 15 15 15 16 16 15 15 16 16 16 16 16 16 16 16 16 15 15 15 14 14 13 12 12 12 11 11 11 11 10 10 11 11 11 11 11 11
19 20 19 20 19 18 17 17 16 16 16 16 17 17 16 17 16 16 16 16 16 16 16 16 15 15 14 14 13 13 12 12 11 11 11 10 10 10 10 10 10 10 10 11
17 19 20 19 19 18 18 17 17 17 17 16 15 16 17 17 17 17 17 17 16 16 16 16 15 15 14 14 13 13 12 12 11 11 11 10 10 10 10 10 10 10 10 10
16 18 20 19 20 20 19 19 18 18 17 16 18 19 18 18 18 17 17 17 16 16 16 16 15 15 15 14 13 13 12 12 11 11 10 10 10 10 10 9 9 9 9 9
15 17 18 20 21 21 20 20 19 18 17 18 19 18 17 18 18 18 17 17 17 16 16 16 15 15 15 14 13 13 12 12 11 11 10 10 10 10 9 9 9 9 9 9
15 18 19 20 21 22 21 20 20 20 18 18 17 14 16 19 18 18 17 17 17 16 16 16 15 15 15 14 13 13 12 11 11 11 10 10 10 10 9 9 9 9 9 9
15 16 17 18 21 21 19 19 21 22 21 19 18 18 21 20 19 18 18 17 17 16 16 16 15 15 15 14 13 13 12 12 11 11 11 10 10 10 10 9 9 9 9 9
14 16 18 20 20 19 19 22 22 22 22 21 21 21 20 20 19 18 18 17 17 17 16 16 16 15 15 14 14 13 12 12 11 11 11 10 10 10 10 10 10 9 9 9
15 17 20 22 22 24 23 23 23 22 22 22 21 21 20 20 19 19 18 17 17 17 17 16 16 16 15 15 14 13 13 12 12 11 11 11 10 10 10 10 10 10 9 9
17 18 21 23 23 23 23 23 23 22 22 22 22 21 20 19 19 19 18 18 17 17 17 17 16 16 16 15 15 14 13 13 12 12 11 11 11 10 10 10 10 10 10 9
19 18 22 23 24 24 24 23 23 22 22 22 22 21 20 20 19 19 18 18 18 17 17 17 17 16 16 16 15 14 14 13 13 12 12 11 11 11 10 10 10 10 10 10
17 18 19 21 21 22 23 23 23 22 22 22 21 21 21 20 20 19 19 18 18 18 17 17 17 17 16 16 15 15 14 14 13 13 12 12 11 11 11 10 10 10 10 10
15 17 18 19 20 20 21 22 22 22 21 21 21 21 21 20 20 19 19 19 18 18 18 17 17 17 17 16 16 15 15 14 13 13 13 12 12 11 11 11 11 10 10 10
16 18 18 17 17 18 19 20 21 21 21 20 20 20 20 20 20 20 19 19 19 18 18 18 17 17 17 16 16 15 15 14 14 13 13 13 12 12 11 11 11 11 11 10
14 15 14 15 17 18 18 19 20 19 19 19 19 19 19 19 19 19 19 19 19 18 18 18 17 17 17 16 16 16 15 15 14 14 13 13 12 12 12 12 11 11 11 11
12 13 14 15 15 15 16 16 16 16 16 17 18 18 18 19 19 19 19 19 19 19 18 18 18 17 17 17 16 16 15 15 14 14 13 13 13 12 12 12 12 12 11 11
11 11 11 11 12 12 12 13 13 13 14 15 16 17 17 18 19 19 19 19 19 19 19 18 18 18 17 17 16 16 16 15 14 14 14 13 13 13 13 12 12 12 12 12
10 10 10 10 10 10 11 11 12 12 13 13 14 15 16 17 17 18 18 19 19 19 19 18 18 18 17 17 16 16 16 15 15 14 14 13 13 13 13 13 13 12 12 12
9 9 9 9 9 9 10 10 10 11 11 12 13 13 14 15 16 16 17 18 18 19 19 19 18 18 17 17 17 16 16 15 15 14 14 14 13 13 13 13 13 13 13 12
9 8 8 8 8 8 8 9 9 9 10 10 11 12 13 13 14 15 16 17 17 18 18 19 18 18 18 17 17 16 16 15 15 15 14 14 14 13 13 13 13 13 13 13
8 8 7 7 7 7 7 7 8 8 8 8 9 9 10 11 12 13 14 15 16 16 17 18 18 18 18 17 17 16 16 15 15 15 14 14 14 14 13 13 13 13 13 13
7 7 7 7 7 7 7 7 7 7 7 7 7 7 8 9 10 10 11 12 13 14 15 16 17 17 17 17 17 16 16 16 15 15 15 14 14 14 14 14 13 13 13 13
7 7 7 6 6 6 6 6 6 6 6 6 6 6 6 7 7 8 9 10 11 12 13 14 16 16 16 16 16 16 16 16 15 15 15 15 14 14 14 14 13 13 13 13
7 6 6 6 6 6 6 6 6 6 6 6 6 6 6 6 7 7 7 8 9 10 11 13 14 15 16 16 16 16 16 16 16 15 15 15 14 14 14 14 13 13 13 13
7 6 6 6 6 6 6 6 6 6 5 6 6 5 5 5 5 6 6 7 7 8 9 11 12 13 14 15 15 15 16 16 16 15 15 15 14 14 14 14 13 13 13 13
7 7 6 6 6 6 6 6 5 5 5 5 5 5 5 5 5 5 5 6 6 7 8 8 9 11 12 12 13 13 14 15 15 15 15 15 14 14 14 14 13 13 13 13
7 7 6 6 6 6 6 6 5 5 5 5 5 5 4 4 4 4 5 5 5 5 6 6 7 8 9 10 11 11 12 13 13 14 14 14 14 14 14 13 13 13 13 13
Wind_Speed
7 8 6 7 7 9 7 8 8 8 7 9 12 13 11 10 9 8 7 7 6 5 5 5 4 4 4 3 2 1 2 2 3 3 4 5 5 5 5 6 6 6 6 7
4 6 7 5 8 9 9 7 8 7 8 8 6 8 9 10 10 9 9 8 7 5 4 4 5 5 4 4 3 2 2 1 2 3 4 5 4 4 5 5 5 5 6 6
4 4 1 6 8 8 7 7 9 9 8 4 6 9 12 12 11 10 9 8 7 4 4 4 5 4 5 4 3 3 2 1 1 3 4 4 4 4 4 5 5 5 6 6
1 4 3 7 5 5 6 6 8 7 7 11 10 11 10 11 11 10 9 8 6 4 3 3 3 3 4 3 3 3 2 1 1 2 3 3 4 4 4 3 4 4 5 6
2 2 7 7 4 1 1 5 5 8 8 10 5 4 4 9 10 10 9 8 6 5 3 3 2 1 3 3 3 3 3 2 2 2 2 2 3 4 3 3 4 4 3 4
3 0 4 6 3 1 2 5 6 6 9 9 9 4 7 9 10 10 9 7 6 4 3 2 2 3 6 5 4 4 4 3 3 3 2 0 2 3 3 3 4 4 3 3
3 4 7 7 2 3 1 6 5 4 8 11 11 10 6 7 10 10 9 8 7 5 4 4 3 5 6 6 6 6 5 4 3 3 3 2 2 3 3 3 4 4 4 4
5 3 7 5 5 5 9 5 4 3 6 11 11 8 6 7 10 10 9 8 8 6 5 5 5 7 7 7 7 6 6 5 4 4 3 1 1 2 3 4 4 5 4 4
8 8 8 7 10 8 6 5 4 3 6 9 8 8 9 9 10 10 10 9 7 7 6 5 6 8 8 8 7 7 6 5 5 4 3 2 1 0 2 3 3 3 3 3
4 7 6 7 8 8 7 7 6 5 5 8 9 10 10 10 10 10 10 9 8 8 7 7 7 8 9 8 8 8 7 7 5 5 4 3 2 2 1 0 1 2 2 3
4 7 7 6 5 5 5 7 8 6 5 8 10 10 11 10 11 11 10 9 8 9 9 9 8 9 9 8 8 8 7 7 6 6 5 4 3 3 3 3 3 2 2 2
5 6 3 4 9 8 5 6 7 6 5 5 8 10 11 11 11 11 11 10 9 10 10 10 9 9 9 9 9 8 6 6 5 5 5 5 4 3 5 5 6 5 5 3
5 7 2 5 11 14 11 10 7 5 5 5 5 7 10 10 11 11 11 11 12 12 12 10 9 9 9 9 9 9 7 7 5 5 6 5 5 5 4 4 6 7 7 6
8 7 7 9 10 12 13 14 11 10 9 7 5 5 5 8 9 11 13 14 13 12 11 11 10 10 10 10 10 9 8 8 7 6 6 6 6 6 5 4 4 4 6 8
10 8 6 6 9 13 13 14 16 15 15 14 9 7 6 7 9 12 13 12 11 12 12 11 11 11 10 10 11 10 8 6 6 6 6 6 6 5 5 6 5 4 3 4
6 6 9 11 14 15 16 16 15 16 15 13 13 12 10 9 10 10 10 10 11 14 14 13 13 13 10 11 11 9 8 11 9 7 6 6 6 6 6 5 5 5 6 5
8 10 11 13 13 14 14 13 12 13 14 15 16 16 14 11 10 9 9 10 14 15 15 15 15 12 11 12 12 9 8 8 11 7 6 7 6 7 7 6 6 6 7 7
7 7 7 8 9 10 12 13 13 14 14 15 16 16 15 14 12 12 12 11 10 12 12 14 14 12 12 13 12 9 8 8 7 7 7 7 7 7 6 6 7 8 6 6
8 9 9 10 10 9 10 11 12 12 14 16 17 17 16 15 15 15 13 10 10 13 13 13 17 15 13 14 14 9 9 9 8 7 7 9 8 7 7 7 7 8 7 6
8 8 8 8 9 8 9 10 11 12 13 15 16 17 18 19 19 18 14 10 10 10 10 11 13 14 14 14 16 10 11 11 10 8 8 7 7 8 7 8 8 8 8 8
6 6 7 7 7 8 8 8 10 11 12 13 14 15 16 17 18 17 15 12 13 13 12 12 11 11 12 13 16 12 12 12 11 10 9 8 8 8 8 8 8 8 8 8
3 4 5 6 6 7 7 7 8 10 11 12 12 13 15 16 17 16 13 11 16 20 15 9 9 12 14 15 12 12 13 13 12 10 9 9 9 9 9 9 9 8 8 8
3 3 4 5 5 6 7 7 8 8 10 11 11 12 13 12 11 13 15 15 16 23 16 11 13 15 16 14 11 13 14 14 13 12 11 10 10 9 9 10 9 8 8 8
4 4 5 5 4 5 7 7 7 7 8 9 9 10 10 11 10 9 9 18 24 24 15 16 20 18 14 11 10 12 13 13 12 12 11 10 10 9 9 9 9 8 8 9
5 5 5 5 5 5 6 7 7 7 7 7 9 9 8 7 9 12 12 14 21 21 15 19 24 22 11 7 8 10 11 12 12 12 11 10 10 10 10 9 9 9 8 8
6 6 6 6 6 6 5 5 5 5 6 7 8 8 8 8 9 10 10 13 15 19 15 13 15 16 12 10 7 6 7 9 11 11 11 11 11 11 10 10 11 9 8 8
6 5 5 5 6 6 6 5 6 6 6 6 7 8 8 8 9 10 11 11 12 12 12 12 12 13 13 12 11 8 6 5 6 8 9 10 10 10 11 12 10 9 8 8
Wind_Direction
230 222 191 201 199 193 186 192 204 237 238 240 219 212 211 212 220 232 244 250 252 255 268 274 273 257 242 239 231 177 93 45 11 2 10 16 19 16 14 13 17 7 8 4
298 253 215 243 237 210 215 213 222 241 263 253 202 184 198 208 213 221 231 241 244 250 271 283 270 250 234 226 219 177 132 79 21 28 26 20 16 16 12 2 356 1 5 1
306 327 76 277 250 214 214 210 195 217 236 178 166 192 201 204 207 212 221 227 230 239 262 276 265 235 218 211 191 160 148 128 64 55 40 21 18 17 1 348 348 350 352 356
351 20 265 259 264 204 213 237 209 210 205 182 196 204 205 198 198 207 211 208 214 223 253 269 266 228 199 174 154 148 144 135 114 84 54 22 14 357 338 330 336 337 345 352
80 329 288 295 288 197 229 288 233 212 210 200 179 145 243 217 197 197 199 198 203 208 208 232 257 204 149 137 142 147 158 163 155 137 88 20 353 332 322 328 329 326 329 349
99 313 266 266 281 94 76 292 278 209 202 181 140 168 249 223 200 196 191 187 190 186 182 218 231 135 128 144 154 173 189 188 176 168 155 291 314 314 318 323 324 331 353 2
170 238 267 258 249 68 58 258 275 217 195 175 184 205 223 197 188 188 187 192 184 173 190 223 193 142 141 166 190 201 193 180 177 191 207 238 294 317 330 349 3 10 20 15
159 203 268 237 157 188 223 241 266 240 201 195 212 219 212 187 181 181 186 191 186 185 213 226 189 161 168 196 209 202 192 189 201 217 232 207 300 347 4 20 28 20 21 9
184 214 242 227 213 228 199 220 249 237 228 202 200 199 192 187 184 187 190 196 197 197 214 223 198 181 189 211 203 198 199 209 219 224 231 218 185 89 23 23 29 12 14 359
228 265 263 260 251 256 231 239 254 239 220 188 196 196 194 193 193 196 200 203 203 202 213 227 214 204 206 205 194 193 205 219 219 214 221 224 206 177 150 345 349 346 349 341
263 286 316 342 326 287 260 263 271 260 221 203 198 199 198 199 201 203 206 207 200 203 213 225 220 217 216 204 189 195 208 216 215 209 204 206 209 210 206 221 210 216 250 274
246 280 263 316 353 358 342 302 281 268 262 232 204 207 204 207 208 206 208 207 205 209 215 222 217 219 218 204 193 192 204 214 212 205 202 200 206 235 255 245 249 238 231 235
295 298 324 356 12 10 2 345 327 305 281 271 249 222 210 211 213 211 213 210 210 211 215 218 217 221 218 203 196 196 202 208 205 200 198 199 202 211 242 267 259 262 263 264
350 12 32 12 353 354 3 4 6 5 349 326 296 263 233 225 221 215 218 218 215 214 216 216 215 222 217 199 198 204 204 206 197 199 201 202 205 208 209 217 245 266 263 255
13 29 26 351 2 11 12 14 15 7 354 344 332 308 274 247 234 230 226 220 213 214 218 215 216 223 212 196 199 203 201 201 200 200 204 207 208 207 209 212 216 229 243 266
3 26 30 28 22 15 13 13 8 357 350 344 339 327 304 275 256 246 233 216 209 218 219 215 218 220 202 195 198 201 204 207 195 197 203 208 210 211 215 215 213 213 218 224
39 28 20 19 14 10 9 5 359 352 349 347 340 332 324 312 294 276 256 232 223 224 218 214 218 214 198 194 195 199 201 206 203 198 204 207 209 214 219 216 214 216 222 214
45 38 28 17 9 4 2 1 358 356 354 347 344 343 342 334 317 297 278 258 243 237 228 220 217 207 200 197 197 198 197 199 197 202 209 213 216 215 215 217 218 220 223 215
31 29 22 16 10 6 2 359 356 354 355 355 354 351 346 341 332 319 303 278 253 248 243 227 218 208 203 202 195 196 197 199 201 207 211 220 223 219 215 216 217 216 209 200
26 19 13 6 3 2 359 355 354 357 359 358 357 355 351 346 342 336 325 297 273 272 264 235 219 213 209 205 197 197 200 202 204 206 208 212 217 221 219 217 215 212 208 206
21 12 4 357 350 348 348 347 352 354 355 359 0 355 347 343 345 346 342 332 324 322 309 265 234 221 212 207 200 200 202 205 206 207 208 212 217 221 222 221 219 216 211 210
357 350 344 341 341 337 333 338 344 346 350 352 353 352 351 348 346 345 341 336 329 328 323 296 264 237 220 210 205 203 205 207 209 208 208 209 213 218 222 221 221 220 217 213
284 290 303 313 318 317 324 333 338 339 341 342 343 345 343 338 340 342 337 334 334 332 328 313 302 273 238 219 211 207 208 209 210 210 211 211 212 214 217 218 218 218 217 216
268 276 282 288 307 322 321 317 321 325 327 327 329 331 332 333 332 331 324 328 337 338 334 328 326 312 270 237 221 214 212 212 212 212 212 211 211 212 215 215 216 216 216 216
264 271 276 289 294 287 284 296 310 316 321 322 320 322 323 319 318 323 326 331 338 342 340 339 341 337 318 278 243 227 219 215 213 210 210 210 211 212 215 215 215 215 214 213
258 260 261 258 255 258 263 272 283 293 304 313 316 317 319 320 319 322 327 330 335 341 343 342 344 345 343 331 304 268 245 230 220 215 212 211 212 212 213 215 215 214 212 212
270 267 269 275 271 257 251 252 260 271 275 284 297 303 309 315 319 323 326 330 334 337 338 341 344 346 347 346 341 328 304 273 246 228 219 215 213 213 214 212 212 209 207 206
Height
1554 1550 1550 1551 1554 1556 1560 1564 1568 1560 1554 1547 1544 1544 1546 1548 1548 1549 1548 1548 1547 1546 1544 1542 1539 1537 1535 1533 1531 1528 1526 1523 1520 1517 1514 1511 1508 1505 1502 1499 1496 1493 1490 1488
1552 1547 1548 1549 1548 1551 1553 1552 1553 1551 1548 1537 1537 1540 1543 1544 1545 1546 1546 1546 1545 1544 1543 1541 1538 1536 1534 1533 1531 1528 1526 1523 1520 1517 1514 1512 1509 1506 1503 1500 1497 1494 1491 1489
1562 1552 1550 1555 1544 1544 1544 1542 1543 1547 1542 1536 1537 1538 1539 1540 1541 1542 1543 1543 1543 1543 1541 1540 1538 1536 1534 1532 1530 1528 1525 1523 1520 1518 1515 1512 1509 1506 1504 1501 1498 1495 1492 1489
1564 1559 1563 1548 1533 1533 1536 1534 1533 1533 1532 1532 1532 1533 1535 1537 1538 1539 1540 1541 1541 1541 1540 1539 1537 1535 1533 1531 1529 1528 1525 1523 1520 1518 1515 1512 1509 1507 1504 1502 1499 1496 1494 1491
1568 1567 1560 1542 1533 1532 1535 1534 1529 1529 1529 1530 1531 1534 1534 1534 1535 1536 1537 1538 1539 1539 1538 1537 1536 1534 1532 1530 1529 1527 1525 1522 1520 1518 1515 1512 1510 1507 1505 1502 1500 1497 1495 1492
1567 1564 1562 1545 1532 1530 1534 1537 1526 1525 1526 1528 1531 1538 1532 1530 1531 1533 1535 1536 1537 1537 1537 1536 1535 1533 1531 1530 1528 1527 1524 1522 1520 1518 1515 1513 1510 1508 1505 1503 1500 1498 1495 1492
1566 1566 1557 1536 1531 1533 1545 1540 1525 1523 1523 1525 1526 1526 1526 1527 1528 1530 1532 1533 1534 1535 1535 1534 1533 1532 1530 1529 1528 1526 1524 1522 1520 1518 1516 1513 1511 1508 1505 1503 1500 1498 1495 1492
1566 1566 1556 1530 1531 1534 1532 1524 1523 1522 1522 1521 1521 1522 1524 1524 1525 1527 1529 1531 1532 1532 1532 1532 1531 1530 1529 1528 1527 1525 1523 1522 1520 1518 1516 1514 1511 1508 1506 1503 1500 1497 1495 1493
1549 1545 1531 1526 1525 1524 1523 1523 1522 1521 1520 1520 1520 1520 1521 1522 1523 1525 1527 1528 1529 1529 1530 1530 1529 1528 1527 1526 1525 1524 1522 1521 1520 1518 1516 1514 1512 1509 1506 1503 1500 1497 1495 1493
1536 1530 1525 1524 1522 1522 1522 1521 1521 1520 1519 1518 1517 1517 1518 1519 1521 1522 1523 1525 1526 1526 1527 1527 1526 1526 1525 1524 1523 1522 1521 1520 1518 1517 1516 1514 1512 1510 1507 1504 1501 1498 1496 1493
1532 1526 1523 1521 1521 1520 1519 1519 1519 1518 1517 1516 1516 1515 1516 1516 1517 1519 1520 1521 1522 1522 1523 1523 1523 1523 1522 1522 1521 1520 1519 1518 1517 1516 1514 1513 1512 1510 1508 1505 1502 1500 1497 1495
1533 1527 1526 1524 1522 1520 1519 1518 1517 1516 1515 1515 1514 1513 1513 1513 1514 1515 1516 1517 1518 1518 1519 1519 1519 1519 1519 1519 1518 1517 1516 1515 1514 1514 1513 1512 1511 1509 1508 1506 1503 1501 1498 1496
1530 1526 1525 1524 1522 1519 1518 1516 1515 1514 1514 1513 1512 1511 1511 1510 1511 1511 1512 1512 1513 1514 1514 1515 1515 1515 1515 1515 1515 1514 1513 1512 1511 1511 1510 1510 1509 1508 1507 1505 1503 1501 1499 1497
1528 1525 1523 1522 1521 1519 1517 1515 1514 1513 1512 1510 1509 1508 1507 1507 1507 1507 1507 1507 1508 1509 1509 1510 1510 1510 1511 1511 1511 1510 1510 1509 1508 1508 1508 1507 1507 1506 1505 1504 1503 1501 1500 1498
1528 1526 1526 1524 1521 1518 1516 1513 1511 1510 1509 1507 1506 1505 1504 1503 1502 1501 1502 1502 1503 1503 1503 1504 1504 1505 1506 1506 1506 1506 1505 1505 1505 1504 1504 1504 1504 1503 1503 1502 1501 1500 1499 1498
1528 1526 1524 1521 1519 1517 1515 1512 1510 1509 1507 1505 1503 1501 1500 1498 1496 1495 1495 1496 1496 1495 1496 1497 1497 1499 1500 1500 1500 1500 1500 1500 1500 1500 1500 1500 1500 1500 1500 1500 1499 1498 1498 1497
1526 1524 1522 1521 1520 1518 1516 1514 1512 1510 1506 1503 1500 1498 1495 1492 1490 1489 1489 1489 1488 1488 1488 1489 1490 1492 1493 1493 1494 1494 1495 1495 1495 1495 1495 1495 1496 1496 1496 1496 1496 1496 1495 1495
1529 1527 1526 1524 1522 1520 1517 1515 1512 1508 1505 1501 1498 1494 1491 1488 1485 1483 1482 1481 1480 1479 1480 1481 1483 1484 1485 1486 1487 1487 1488 1489 1489 1489 1490 1490 1491 1491 1492 1492 1492 1492 1492 1492
1529 1528 1526 1525 1523 1520 1518 1514 1511 1507 1503 1499 1495 1491 1488 1485 1481 1478 1475 1474 1473 1471 1471 1473 1474 1475 1476 1478 1479 1480 1481 1481 1482 1483 1484 1484 1485 1486 1486 1487 1487 1488 1488 1488
1529 1528 1526 1524 1522 1520 1517 1513 1510 1506 1502 1498 1493 1489 1485 1481 1477 1473 1470 1467 1466 1465 1464 1465 1466 1466 1467 1469 1470 1471 1472 1473 1474 1475 1476 1477 1478 1479 1480 1481 1482 1483 1483 1484
1528 1526 1525 1523 1521 1518 1515 1512 1508 1504 1500 1496 1492 1488 1483 1479 1475 1470 1465 1461 1459 1457 1456 1456 1456 1457 1458 1460 1461 1462 1463 1465 1466 1467 1468 1470 1471 1472 1473 1475 1476 1477 1478 1478
1525 1524 1522 1520 1518 1515 1513 1510 1506 1502 1498 1495 1490 1486 1481 1476 1471 1467 1464 1460 1455 1451 1449 1448 1447 1448 1449 1451 1452 1453 1454 1455 1457 1458 1460 1461 1463 1464 1465 1467 1469 1470 1471 1472
1522 1521 1519 1517 1515 1513 1510 1507 1504 1500 1496 1492 1488 1484 1479 1475 1471 1465 1459 1455 1451 1447 1444 1441 1440 1439 1440 1441 1442 1443 1445 1446 1448 1449 1451 1452 1454 1455 1457 1459 1461 1462 1464 1465
1519 1518 1516 1514 1512 1510 1507 1504 1501 1498 1494 1491 1487 1482 1478 1473 1468 1464 1460 1454 1448 1444 1439 1436 1433 1431 1430 1431 1432 1433 1435 1437 1438 1440 1442 1444 1445 1447 1448 1450 1452 1454 1456 1458
1515 1514 1512 1511 1509 1506 1504 1501 1498 1495 1491 1487 1484 1480 1476 1471 1466 1461 1456 1451 1446 1440 1435 1431 1427 1424 1422 1421 1422 1424 1425 1427 1429 1431 1433 1435 1436 1438 1439 1441 1443 1445 1447 1449
1511 1510 1509 1507 1505 1503 1501 1498 1495 1492 1488 1484 1480 1477 1472 1468 1463 1458 1453 1448 1443 1438 1433 1428 1424 1420 1417 1415 1414 1415 1416 1418 1420 1422 1424 1426 1428 1429 1431 1432 1434 1436 1438 1440
1507 1506 1504 1503 1501 1499 1497 1494 1492 1489 1485 1482 1478 1474 1470 1465 1461 1456 1451 1446 1441 1436 1431 1426 1422 1418 1414 1411 1409 1408 1408 1409 1411 1413 1415 1417 1419 1420 1422 1424 1426 1428 1430 1432